Regional Weather Roundup
Issued by NWS

Home | Current Version | Previous Version | Graphics & Text | Print | Product List | Glossary On
Versions: 1 2 3 4 5 6 7 8 9 10 11 12 13 14 15 16 17 18 19 20 21 22 23 24 25 26 27 28 29 30 31 32 33 34 35 36 37 38 39 40 41 42 43 44 45 46 47 48 49 50
000
ASUS43 KDMX 261001
RWRIA

WEATHER ROUNDUP FOR IOWA
NATIONAL WEATHER SERVICE DES MOINES IA
500 AM CDT TUE SEP 26 2017

NOTE: "FAIR" INDICATES FEW OR NO CLOUDS BELOW 12,000 FEET WITH NO
SIGNIFICANT WEATHER AND/OR OBSTRUCTIONS TO VISIBILITY.

* - THESE STATIONS ARE NOT NWS STATIONS...THUS NOT UNDER NWS
QUALITY CONTROL.  THEY ALSO DO NOT REPORT WEATHER SUCH
AS PRECIPITATION OR FOG.

IAZ001>003-012>014-020>022-031>034-043>046-261100-
   NORTHWEST IOWA

CITY           SKY/WX    TMP DP  RH WIND       PRES   REMARKS
CARROLL *      LGT RAIN  63  63 100 NW6       29.95R
CHEROKEE *     CLOUDY    53  53 100 NW8       29.99R
DENISON *      CLOUDY    57  57 100 NW8G14    29.99R
LE MARS *      CLOUDY    54  52  94 NW6       30.01S
ORANGE CITY *  CLOUDY    54  54 100 N6        30.00S
SHELDON *      LGT RAIN  52  52 100 NW6G13    29.98S
SIOUX CITY     CLOUDY    53  53 100 NW8       30.01S
SPENCER        LGT RAIN  54  53  97 NW13      29.98R FOG
STORM LAKE *   CLOUDY    55  54  94 NW10G16   29.98R FOG
$$

IAZ055>058-069>071-079>083-090>094-261100-
   SOUTHWEST IOWA

CITY           SKY/WX    TMP DP  RH WIND       PRES   REMARKS
ATLANTIC *     CLOUDY    61  61 100 W7G15     29.96R FOG
AUDUBON *      CLOUDY    61  59  94 CALM      29.97R FOG
CLARINDA *     CLOUDY    63  63 100 NW8       29.98R
COUNCIL BLFS * CLOUDY    55  55 100 NW9G16    29.98S FOG
CRESTON *      CLOUDY    66  64  94 W5        29.96S FOG
HARLAN  *      CLOUDY    57  57 100 NW9       30.00S
LAMONI         RAIN      67  67 100 CALM      29.94R FOG
RED OAK *      CLOUDY    59  59 100 NW9       29.97F
SHENANDOAH *   CLOUDY    59  59 100 NW8G15    29.98S
$$

IAZ047>049-059>061-072>074-084-261100-
   CENTRAL IOWA

CITY           SKY/WX    TMP DP  RH WIND       PRES   REMARKS
AMES           FOG       65  65 100 S3        29.92S VSB 1/2
ANKENY *       CLOUDY    66  64  94 CALM      29.92S FOG
BOONE *        FOG       66  66 100 SW3       29.92R VSB 3/4
CHARITON *     CLOUDY    66  66 100 CALM      29.92F
DES MOINES     CLOUDY    66  66 100 S5        29.91S
GRINNELL*      MOCLDY    64  63  95 CALM      29.93F FOG
KNOXVILLE *    DRIZZLE   66  64  94 CALM      29.90F
MARSHALLTOWN   LGT RAIN  65  65 100 SE6       29.91F FOG
NEWTON *       CLOUDY    64  64 100 CALM      29.92F FOG
PELLA *        PTCLDY    66  65  96 CALM      29.93S
PERRY *        LGT RAIN  64  64  98 W5        29.94R VSB 1/2
$$

IAZ004>006-015-016-023>025-035-036-261100-
   NORTH CENTRAL IOWA

CITY           SKY/WX    TMP DP  RH WIND       PRES   REMARKS
ALGONA *       DRIZZLE   59  59 100 W7        29.94S
CLARION *      CLOUDY    63  63 100 SW3       29.92S FOG
ESTHERVILLE    CLOUDY    55  55 100 NW8       29.95S FOG
FORT DODGE *   RAIN      60  59  96 W5        29.94S FOG
MASON CITY     LGT RAIN  64  63  96 S5        29.92F
FOREST CITY *  LGT RAIN  63  63 100 CALM      29.91F
WEBSTER CITY * CLOUDY    63  63 100 W5        29.91R FOG
IOWA FALLS *   RAIN      65  64  99 CALM      29.93R
$$

IAZ007>011-017>019-026>030-037>042-050>054-066-261100-
   NORTHEAST IOWA

CITY           SKY/WX    TMP DP  RH WIND       PRES   REMARKS
CEDAR RAPIDS   CLOUDY    67  66  97 W12       29.94R
CHARLES CITY * CLOUDY    64  64 100 CALM      29.93S FOG
CLINTON *      CLOUDY   N/A N/A N/A E8        29.92
DECORAH *      CLOUDY    64  64 100 VRB3      29.92R FOG
DUBUQUE        MOCLDY    66  64  93 CALM      29.93S
MONTICELLO *   CLOUDY    66  64  94 CALM      29.91S
OELWEIN *      CLOUDY    64  64 100 CALM      29.95S FOG
WATERLOO       MOCLDY    65  64  97 SE5       29.92S
$$

IAZ064-065-067-068-078-261100-
   EAST CENTRAL IOWA

CITY           SKY/WX    TMP DP  RH WIND       PRES   REMARKS
DAVENPORT      CLOUDY    69  66  90 E6        29.93S
MUSCATINE *    CLOUDY    70  66  88 CALM      29.91S
QUAD CITIES    CLOUDY    69  67  93 E6        29.91S
$$

IAZ062-063-075>077-085>089-095>099-261100-
   SOUTHEAST IOWA

CITY           SKY/WX    TMP DP  RH WIND       PRES   REMARKS
BURLINGTON     CLOUDY    70  68  93 CALM      29.91S
FAIRFIELD *    CLOUDY    68  64  88 N6        29.92F
FORT MADISON * CLOUDY    68  68 100 CALM      29.92S
KEOKUK *       CLOUDY    70  68  94 CALM      29.91S
OSKALOOSA *      N/A     65  64  97 CALM      29.92F
OTTUMWA        CLOUDY    67  65  93 NE6       29.91F
WASHINGTON *   CLOUDY    68  68 100 VRB3G15   29.94R
$$

ABBREVIATIONS USED IN REMARKS
   TC - TEMPERATURES IN CELSIUS
  WCI - WIND CHILL INDEX
   HX - HEAT INDEX
  VSB - VISIBILITY
$$




USA.gov is the U.S. government's official web portal to all federal, state and local government web resources and services.